FW1865 Weather Reports


time (UTC)temp
F
wind
direction
speed
knots
gust
knots
rain 1hr
in
rain 24hr
in
rain mn
in
humidity
%
barometer
mb
20210122054328 11 303 6.1 14.8 0.00 0.00 0.00 65 1040.4
20210122053828 11 325 4.3 14.8 0.00 0.00 0.00 65 1040.3
20210122053329 11 299 6.1 13.9 0.00 0.00 0.00 64 1040.3
20210122052831 12 296 7.0 13.9 0.00 0.00 0.00 64 1040.2
20210122052336 12 360 5.2 16.5 0.00 0.00 0.00 64 1040.3
20210122051833 12 319 6.1 16.5 0.00 0.00 0.00 63 1040.2
20210122051315 12 312 8.7 16.5 0.00 0.00 0.00 62 1040.1
20210122050816 12 332 6.1 15.6 0.00 0.00 0.00 63 1040.0
20210122050323 12 346 7.0 13.9 0.00 0.00 0.00 62 1040.0
20210122045819 13 336 7.8 20.0 0.00 0.00 0.00 62 1040.0
20210122045320 13 339 10.4 20.0 0.00 0.00 0.00 61 1039.9
20210122044824 13 341 7.8 14.8 0.00 0.00 0.00 61 1039.8
20210122044325 13 332 7.8 17.4 0.00 0.00 0.00 62 1039.6
20210122043826 13 327 5.2 17.4 0.00 0.00 0.00 63 1039.5
20210122043320 13 337 7.0 16.5 0.00 0.00 0.00 62 1039.4
20210122042823 14 330 7.8 16.5 0.00 0.00 0.00 62 1039.3
20210122042323 14 326 3.5 9.6 0.00 0.00 0.00 64 1039.2
20210122041823 14 337 5.2 10.4 0.00 0.00 0.00 63 1039.3
20210122041324 14 22 5.2 11.3 0.00 0.00 0.00 63 1039.2
20210122040824 14 343 4.3 11.3 0.00 0.00 0.00 63 1039.0
20210122040326 14 327 6.1 14.8 0.00 0.00 0.00 63 1038.7
20210122035830 15 339 6.1 14.8 0.00 0.00 0.00 63 1038.7
20210122035330 15 318 7.0 19.1 0.00 0.00 0.00 62 1038.6
20210122034832 15 360 10.4 19.1 0.00 0.00 0.00 62 1038.5
20210122034313 15 330 7.0 14.8 0.00 0.00 0.00 63 1038.3
20210122033815 15 1 4.3 12.2 0.00 0.00 0.00 64 1038.2
20210122033317 15 317 7.0 12.2 0.00 0.00 0.00 63 1038.0
20210122032818 15 334 5.2 11.3 0.00 0.00 0.00 64 1038.1
20210122032321 16 322 7.0 11.3 0.00 0.00 0.00 63 1038.0
20210122031820 16 44 5.2 9.6 0.00 0.00 0.00 64 1038.0
20210122031327 16 339 1.7 8.7 0.00 0.00 0.00 65 1037.9
20210122030830 16 331 4.3 8.7 0.00 0.00 0.00 64 1037.8
20210122030329 16 341 3.5 8.7 0.00 0.00 0.00 64 1037.7
20210122025830 16 323 1.7 10.4 0.00 0.00 0.00 65 1037.6
20210122025330 17 322 5.2 13.0 0.00 0.00 0.00 63 1037.5
20210122024831 17 340 5.2 13.0 0.00 0.00 0.00 63 1037.5
20210122024314 17 343 7.0 13.0 0.00 0.00 0.00 62 1037.4
20210122023815 17 22 3.5 8.7 0.00 0.00 0.00 64 1037.4
20210122023315 17 351 3.5 11.3 0.00 0.00 0.00 64 1037.2
20210122022819 17 315 5.2 11.3 0.00 0.00 0.00 63 1037.1
20210122022327 17 330 6.1 11.3 0.00 0.00 0.00 62 1036.9
20210122021831 18 339 5.2 11.3 0.00 0.00 0.00 63 1036.8
20210122021335 18 315 5.2 12.2 0.00 0.00 0.00 61 1036.8
20210122020812 18 336 5.2 12.2 0.00 0.00 0.00 63 1036.7
20210122020326 18 345 2.6 12.2 0.00 0.00 0.00 63 1036.5
20210122015818 19 347 4.3 12.2 0.00 0.00 0.00 62 1036.5
20210122015322 19 325 6.1 13.9 0.00 0.00 0.00 62 1036.3
20210122014821 19 354 7.0 13.9 0.00 0.00 0.00 62 1036.3
20210122014324 20 332 7.0 13.9 0.00 0.00 0.00 62 1036.2
20210122013828 20 334 5.2 14.8 0.00 0.00 0.00 62 1036.0
20210122013326 20 304 8.7 15.6 0.00 0.00 0.00 61 1035.8
20210122012829 21 314 6.1 15.6 0.00 0.00 0.00 61 1035.9
20210122012329 21 352 6.1 13.9 0.00 0.00 0.00 63 1035.7
20210122011830 21 3 6.1 11.3 0.00 0.00 0.00 63 1035.5
20210122011313 22 316 7.0 15.6 0.00 0.00 0.00 62 1035.4
20210122010817 22 353 7.8 15.6 0.00 0.00 0.00 62 1035.3
20210122010315 22 324 7.0 15.6 0.00 0.00 0.00 63 1035.0
20210122005817 22 330 9.6 15.6 0.00 0.00 0.00 62 1034.9
20210122005322 22 67 6.1 16.5 0.00 0.00 0.00 63 1034.8
20210122004822 23 341 6.1 13.9 0.00 0.00 0.00 63 1034.6
20210122004324 23 281 7.0 13.9 0.00 0.00 0.00 62 1034.5
20210122003825 23 285 7.0 15.6 0.00 0.00 0.00 62 1034.4
20210122003335 23 292 7.8 15.6 0.00 0.00 0.00 62 1034.3
20210122002826 24 300 7.8 15.6 0.00 0.00 0.00 61 1034.0
20210122002325 24 289 8.7 15.6 0.00 0.00 0.00 61 1033.7
20210122001831 24 315 7.8 15.6 0.00 0.00 0.00 60 1033.7
20210122001332 25 301 8.7 15.6 0.00 0.00 0.00 60 1033.7
20210122000832 25 307 7.0 15.6 0.00 0.00 0.00 60 1033.4
20210122000335 25 296 8.7 17.4 0.00 0.00 0.00 59 1033.3
20210121235814 25 303 8.7 17.4 0.00 0.00 0.00 60 1033.3
20210121235318 26 278 8.7 16.5 0.00 0.00 0.00 60 1033.1
20210121234819 26 307 6.1 11.3 0.00 0.00 0.00 60 1033.0
20210121234327 26 308 7.0 13.0 0.00 0.00 0.00 60 1032.9
20210121233824 27 20 7.8 13.0 0.00 0.00 0.00 60 1032.8
20210121233328 27 325 7.0 13.9 0.00 0.00 0.00 61 1032.8
20210121232830 27 323 7.0 14.8 0.00 0.00 0.00 61 1032.5
20210121232321 28 307 8.7 14.8 0.00 0.00 0.00 60 1032.3
20210121231818 28 303 8.7 16.5 0.00 0.00 0.00 60 1032.3
20210121231319 28 305 8.7 16.5 0.00 0.00 0.00 60 1032.1
20210121230823 28 301 7.0 18.2 0.00 0.00 0.00 60 1031.9
20210121230317 29 318 10.4 19.1 0.00 0.00 0.00 60 1031.9
20210121225816 29 323 12.2 19.1 0.00 0.01 0.00 58 1031.8
20210121225319 29 292 11.3 19.1 0.00 0.01 0.00 59 1031.6
20210121224819 30 322 7.0 15.6 0.00 0.01 0.00 60 1031.6
20210121224321 30 313 7.8 14.8 0.00 0.01 0.00 60 1031.5
20210121223824 31 309 9.6 18.2 0.00 0.01 0.00 60 1031.4
20210121223326 31 308 10.4 18.2 0.00 0.01 0.00 60 1031.3
20210121222814 32 294 8.7 14.8 0.00 0.01 0.00 65 1031.1
20210121222314 32 294 9.6 16.5 0.00 0.01 0.00 64 1030.9
20210121221816 33 292 11.3 18.2 0.00 0.01 0.00 64 1030.8
20210121221320 33 293 11.3 23.5 0.00 0.01 0.00 63 1030.8
20210121220821 33 289 12.2 23.5 0.00 0.01 0.00 63 1030.7
20210121220324 34 299 13.0 20.0 0.00 0.01 0.00 63 1030.4
20210121215831 34 313 10.4 19.1 0.00 0.01 0.00 64 1030.4
20210121215329 34 270 9.6 16.5 0.00 0.01 0.00 63 1030.4
20210121214834 34 327 10.4 15.6 0.00 0.01 0.00 64 1030.2
20210121214315 35 300 7.0 15.6 0.00 0.01 0.00 65 1030.1
20210121213820 35 315 10.4 19.1 0.00 0.01 0.00 65 1030.1
20210121212829 34 298 7.8 15.6 0.00 0.01 0.00 65 1029.8
20210121212330 34 320 8.7 20.0 0.00 0.01 0.00 67 1029.7
20210121211833 34 339 13.0 20.0 0.00 0.01 0.00 66 1029.7
20210121211317 34 289 11.3 20.0 0.00 0.01 0.00 66 1029.6
20210121210822 35 300 9.6 17.4 0.00 0.01 0.00 68 1029.5
20210121210325 34 303 7.8 17.4 0.00 0.01 0.00 69 1029.5
20210121205821 35 292 9.6 20.0 0.00 0.01 0.00 69 1029.3
20210121205326 35 292 13.0 21.7 0.00 0.01 0.00 68 1029.4
20210121204826 35 286 11.3 21.7 0.00 0.01 0.00 67 1029.3
20210121204324 35 311 10.4 16.5 0.00 0.01 0.00 69 1029.2
20210121203828 35 311 11.3 17.4 0.00 0.01 0.00 67 1029.1
20210121203327 35 284 10.4 18.2 0.00 0.01 0.00 68 1029.2
20210121202832 35 321 9.6 18.2 0.00 0.01 0.00 66 1029.1
20210121202314 35 341 10.4 18.2 0.00 0.01 0.00 65 1029.2
20210121201819 35 294 11.3 16.5 0.00 0.01 0.00 66 1029.1
20210121201321 35 309 10.4 19.1 0.00 0.01 0.00 65 1028.9
20210121200828 36 318 9.6 19.1 0.00 0.01 0.00 65 1028.9
20210121200331 36 303 9.6 18.2 0.00 0.01 0.00 65 1028.9
20210121195813 36 334 8.7 14.8 0.00 0.01 0.00 66 1029.0
20210121195317 36 303 9.6 14.8 0.00 0.01 0.00 66 1029.0
20210121194817 36 293 6.1 14.8 0.00 0.01 0.00 67 1029.0
20210121194325 36 294 7.8 13.9 0.00 0.01 0.00 68 1028.8
20210121193832 35 318 7.0 12.2 0.00 0.01 0.00 70 1028.9
20210121193317 35 292 7.0 14.8 0.00 0.01 0.00 72 1028.9
20210121192820 35 320 8.7 14.8 0.00 0.01 0.00 71 1029.0
20210121192321 35 340 8.7 13.9 0.00 0.01 0.00 71 1028.9
20210121191824 35 302 7.0 12.2 0.00 0.01 0.00 72 1028.9
20210121191329 35 302 7.8 13.0 0.00 0.01 0.00 72 1029.0
20210121190833 35 277 9.6 13.9 0.00 0.01 0.00 70 1028.8
20210121190317 35 306 7.8 13.9 0.00 0.01 0.00 71 1028.8
20210121185822 35 341 6.1 13.9 0.00 0.01 0.00 71 1028.8
20210121185326 35 318 8.7 18.2 0.00 0.01 0.00 71 1028.7
20210121184830 35 260 8.7 18.2 0.00 0.01 0.00 69 1028.8
20210121184318 35 289 9.6 14.8 0.00 0.01 0.00 70 1028.7
20210121183817 35 274 7.8 13.0 0.00 0.01 0.00 71 1028.8
20210121183322 35 292 7.0 13.9 0.00 0.01 0.00 70 1028.8
20210121182823 34 279 7.0 13.9 0.00 0.01 0.00 70 1028.7
20210121182322 34 329 8.7 16.5 0.00 0.01 0.00 70 1028.8
20210121181823 35 323 8.7 15.6 0.00 0.01 0.00 69 1028.7
20210121181325 35 297 7.8 13.0 0.00 0.01 0.00 70 1028.9
20210121180825 35 291 7.0 13.0 0.00 0.01 0.00 70 1028.7
20210121180326 35 271 6.1 13.9 0.00 0.01 0.00 69 1028.6
20210121175829 35 337 7.8 12.2 0.00 0.01 0.00 69 1028.4
20210121175328 35 263 7.8 12.2 0.00 0.01 0.00 69 1028.6
20210121174830 34 290 6.1 13.9 0.00 0.01 0.00 69 1028.5
20210121174327 34 293 7.0 13.9 0.00 0.01 0.00 71 1028.7
20210121173826 34 312 8.7 16.5 0.00 0.01 0.00 70 1028.7
20210121173321 34 310 7.8 13.9 0.00 0.01 0.00 71 1028.9
20210121172831 34 23 8.7 14.8 0.00 0.01 0.00 70 1028.8
20210121172316 34 296 7.0 13.0 0.00 0.01 0.00 70 1029.0
20210121171814 34 302 7.0 13.9 0.00 0.01 0.00 71 1029.0
20210121171315 34 300 7.0 13.9 0.00 0.01 0.00 71 1029.0
20210121170815 34 301 7.8 12.2 0.00 0.01 0.00 70 1029.1
20210121170316 34 289 5.2 13.9 0.00 0.01 0.00 72 1029.1
20210121165818 34 299 7.8 13.9 0.00 0.01 0.00 71 1029.0
20210121165327 34 302 8.7 14.8 0.00 0.01 0.00 71 1029.1
20210121164824 33 310 9.6 13.9 0.00 0.01 0.00 71 1029.0
20210121164318 33 209 7.0 13.0 0.00 0.01 0.00 71 1029.1
20210121163820 33 290 7.8 13.9 0.00 0.01 0.00 71 1028.9
20210121163325 33 292 8.7 18.2 0.00 0.01 0.00 71 1029.0
20210121162822 33 324 9.6 14.8 0.00 0.01 0.00 71 1028.9
20210121162317 33 314 7.8 14.8 0.00 0.01 0.00 71 1028.8
20210121161817 33 255 8.7 13.0 0.00 0.01 0.00 70 1028.8
20210121161320 33 322 7.0 13.0 0.00 0.01 0.00 71 1028.8
20210121160823 33 282 7.8 15.6 0.00 0.01 0.00 71 1028.7
20210121160324 33 270 7.8 15.6 0.00 0.01 0.00 70 1028.7
20210121155829 33 240 9.6 14.8 0.00 0.01 0.00 71 1028.7
20210121155329 33 344 7.0 17.4 0.00 0.01 0.00 71 1028.6
20210121154827 33 320 8.7 17.4 0.00 0.01 0.00 70 1028.7
20210121154329 33 315 8.7 13.9 0.00 0.01 0.00 69 1028.5
20210121153828 32 242 9.6 16.5 0.00 0.01 0.00 70 1028.4
20210121153334 32 303 8.7 16.5 0.00 0.01 0.00 70 1028.3
20210121152834 32 292 8.7 18.2 0.00 0.01 0.00 70 1028.4
20210121152327 33 278 11.3 19.1 0.00 0.01 0.00 70 1028.5
20210121151828 32 273 9.6 19.1 0.00 0.01 0.00 70 1028.4
20210121151329 32 272 7.8 13.9 0.00 0.01 0.00 70 1028.3
20210121150829 32 275 7.8 13.0 0.00 0.01 0.00 71 1028.3
20210121150330 32 294 7.8 14.8 0.00 0.01 0.00 70 1028.1
20210121145824 32 303 7.8 14.8 0.00 0.01 0.00 69 1028.0
20210121145323 32 247 7.8 13.0 0.00 0.01 0.00 70 1027.9
20210121144822 32 296 7.0 16.5 0.00 0.01 0.00 69 1027.7
20210121144321 32 206 9.6 16.5 0.00 0.01 0.00 70 1027.6
20210121143820 32 260 7.8 15.6 0.00 0.01 0.00 69 1027.6
20210121143320 32 290 8.7 20.9 0.00 0.01 0.00 70 1027.6
20210121142821 31 274 10.4 20.9 0.00 0.01 0.00 71 1027.5
20210121142320 31 298 7.8 13.9 0.00 0.01 0.00 70 1027.4
20210121141822 31 295 9.6 13.9 0.00 0.01 0.00 71 1027.4
20210121141320 31 283 7.8 13.0 0.00 0.01 0.00 70 1027.4
20210121140821 31 294 8.7 14.8 0.00 0.01 0.00 70 1027.4
20210121140321 31 271 5.2 14.8 0.00 0.01 0.00 70 1027.3
20210121135822 31 279 6.1 14.8 0.00 0.01 0.00 70 1027.2
20210121135323 31 270 7.0 12.2 0.00 0.01 0.00 70 1027.2
20210121134824 31 260 7.0 12.2 0.00 0.01 0.00 69 1027.2
20210121134325 31 248 7.8 16.5 0.00 0.01 0.00 69 1027.2
20210121133833 31 275 8.7 16.5 0.00 0.01 0.00 69 1027.1
20210121133329 31 270 7.8 13.0 0.00 0.01 0.00 69 1027.1
20210121132829 31 260 7.0 13.0 0.00 0.01 0.00 69 1027.0
20210121132332 31 277 7.0 13.9 0.00 0.01 0.00 69 1027.1
20210121131814 31 272 8.7 14.8 0.00 0.01 0.00 69 1026.9
20210121131315 31 258 9.6 14.8 0.00 0.01 0.00 69 1027.0
20210121130814 31 238 10.4 20.0 0.00 0.01 0.00 69 1027.0
20210121130314 32 280 10.4 20.0 0.00 0.01 0.00 68 1027.0
20210121125816 32 270 8.7 13.9 0.00 0.01 0.00 68 1026.9
20210121125320 32 282 9.6 13.0 0.00 0.01 0.00 68 1027.0
20210121124819 32 261 8.7 13.9 0.00 0.01 0.00 67 1026.9
20210121124321 32 283 8.7 13.9 0.00 0.01 0.00 67 1026.9
20210121123823 32 301 9.6 13.0 0.00 0.01 0.00 68 1026.9
20210121123324 32 288 8.7 13.9 0.00 0.01 0.00 68 1027.0
20210121122828 32 252 8.7 14.8 0.00 0.01 0.00 68 1026.9
20210121122325 32 258 9.6 15.6 0.00 0.01 0.00 68 1027.0
20210121121825 32 256 8.7 15.6 0.00 0.01 0.00 68 1026.9
20210121121327 32 259 10.4 15.6 0.00 0.01 0.00 68 1026.9
20210121120854 32 286 8.7 13.0 0.00 0.01 0.00 67 1027.0
20210121120320 32 288 6.1 11.3 0.00 0.01 0.00 67 1027.0
20210121115828 32 292 7.0 12.2 0.00 0.01 0.00 68 1027.1
20210121115320 32 279 7.0 13.0 0.00 0.01 0.00 68 1027.1
20210121114821 32 280 7.0 13.0 0.00 0.01 0.00 68 1027.0
20210121114322 32 254 8.7 15.6 0.00 0.01 0.00 68 1026.9
20210121113822 32 275 8.7 16.5 0.00 0.01 0.00 68 1026.9
20210121113324 32 291 10.4 17.4 0.00 0.01 0.00 68 1026.8
20210121112824 32 242 9.6 17.4 0.00 0.01 0.00 68 1026.9
20210121112324 32 263 11.3 16.5 0.00 0.01 0.00 67 1026.9
20210121111824 32 293 10.4 14.8 0.00 0.01 0.00 67 1026.8
20210121111327 33 279 8.7 17.4 0.00 0.01 0.00 67 1026.9
20210121110828 33 254 11.3 17.4 0.00 0.01 0.00 66 1026.9
20210121110331 33 281 10.4 13.9 0.00 0.01 0.00 66 1026.8
20210121105828 33 239 8.7 13.0 0.00 0.01 0.00 66 1026.7
20210121105329 34 278 7.8 13.0 0.00 0.01 0.00 66 1026.8
20210121104816 33 273 6.1 9.6 0.00 0.01 0.00 66 1026.8
20210121104317 33 294 5.2 10.4 0.00 0.01 0.00 66 1026.8
20210121103820 33 282 6.1 10.4 0.00 0.01 0.00 66 1026.9
20210121103323 33 267 6.1 13.0 0.00 0.01 0.00 67 1027.0
20210121102822 34 291 7.8 13.0 0.00 0.01 0.00 66 1026.9
20210121102326 34 283 7.8 12.2 0.00 0.01 0.00 66 1027.0
20210121101827 34 276 6.1 17.4 0.00 0.01 0.00 66 1026.9
20210121101319 34 292 8.7 17.4 0.00 0.01 0.00 66 1027.0
20210121100818 34 287 7.0 14.8 0.00 0.01 0.00 66 1027.0
20210121100318 34 289 9.6 16.5 0.00 0.01 0.00 66 1027.1
20210121095821 34 271 11.3 16.5 0.00 0.01 0.00 66 1027.0
20210121095324 34 279 7.8 14.8 0.00 0.01 0.00 67 1027.1
20210121094828 34 277 8.7 17.4 0.00 0.01 0.00 67 1027.1
20210121094312 34 295 9.6 17.4 0.00 0.01 0.00 67 1027.0
20210121093818 34 268 5.2 13.0 0.00 0.01 0.00 67 1027.1
20210121093321 34 287 7.8 13.0 0.00 0.01 0.00 67 1027.1
20210121092824 34 282 5.2 12.2 0.00 0.01 0.00 67 1027.2
20210121092326 34 289 6.1 13.0 0.00 0.01 0.00 67 1027.2
20210121091829 34 296 7.0 13.0 0.00 0.01 0.00 67 1027.4
20210121091314 34 315 7.0 12.2 0.00 0.01 0.00 67 1027.3
20210121090815 34 285 6.1 12.2 0.00 0.01 0.00 67 1027.2
20210121090319 34 277 7.0 13.0 0.00 0.01 0.00 67 1027.1
20210121085831 34 281 7.0 13.0 0.00 0.01 0.00 67 1027.1
20210121085326 34 261 5.2 11.3 0.00 0.01 0.00 67 1027.2
20210121084830 34 285 4.3 9.6 0.00 0.01 0.00 67 1027.2
20210121084327 34 273 5.2 10.4 0.00 0.01 0.00 67 1027.2
20210121083851 34 284 7.0 13.0 0.00 0.01 0.00 67 1027.1
20210121083312 34 282 7.8 16.5 0.00 0.01 0.00 68 1027.1
20210121082814 34 247 11.3 16.5 0.00 0.01 0.00 67 1027.0
20210121082332 35 263 9.6 14.8 0.00 0.01 0.00 67 1027.1
20210121081812 35 301 7.8 19.1 0.00 0.01 0.00 66 1026.9
20210121081324 35 332 7.8 19.1 0.00 0.01 0.00 67 1026.9
20210121080818 35 256 7.8 14.8 0.00 0.01 0.00 66 1026.8
20210121080320 35 275 7.0 14.8 0.00 0.01 0.00 67 1026.8
20210121075824 35 282 7.0 17.4 0.00 0.01 0.00 67 1026.8
20210121075325 35 295 8.7 14.8 0.00 0.01 0.00 67 1026.7
20210121074813 35 274 8.7 14.8 0.00 0.01 0.00 67 1026.7
20210121074319 35 273 8.7 15.6 0.00 0.01 0.00 67 1026.6
20210121073816 35 268 9.6 15.6 0.00 0.01 0.00 67 1026.6
20210121073319 35 275 7.8 11.3 0.00 0.01 0.00 68 1026.7
20210121072818 35 281 6.1 12.2 0.00 0.01 0.00 67 1026.7
20210121072316 35 251 6.1 17.4 0.00 0.01 0.00 68 1026.7
20210121071817 35 283 6.1 17.4 0.00 0.01 0.00 67 1026.6
20210121071315 35 299 6.1 12.2 0.00 0.01 0.00 67 1026.7
20210121070814 35 280 7.8 13.0 0.00 0.01 0.00 67 1026.7
20210121070313 35 287 7.0 13.9 0.00 0.01 0.00 68 1026.7
20210121065812 35 264 7.0 10.4 0.00 0.01 0.00 68 1026.5
20210121065326 35 256 6.1 10.4 0.00 0.01 0.00 68 1026.7
20210121064831 35 297 7.0 12.2 0.00 0.01 0.00 68 1026.6
20210121064325 35 280 7.8 13.0 0.00 0.01 0.00 68 1026.6
20210121063825 35 299 8.7 13.0 0.00 0.01 0.00 68 1026.6
20210121063324 35 318 5.2 10.4 0.00 0.01 0.00 68 1026.6
20210121062828 35 280 6.1 10.4 0.00 0.01 0.00 68 1026.5
20210121062320 35 268 7.0 11.3 0.00 0.01 0.00 68 1026.6
20210121061823 35 280 4.3 11.3 0.00 0.01 0.00 68 1026.5
20210121061320 35 275 5.2 11.3 0.00 0.01 0.00 68 1026.5
20210121060817 35 294 7.0 13.0 0.00 0.01 0.00 68 1026.5
20210121060316 35 239 6.1 12.2 0.00 0.01 0.00 68 1026.4
20210121055816 35 261 6.1 12.2 0.00 0.01 0.01 68 1026.4
20210121055313 35 279 4.3 13.9 0.00 0.01 0.01 68 1026.4
20210121054815 35 281 7.8 13.9 0.00 0.01 0.01 68 1026.2